COSMOS 864

导读 | 星芒AI

COSMOS 864 是一颗由苏联于1976年12月16日发射的军用卫星,主要用于电子侦察和信号情报收集。该卫星属于“宇宙”(COSMOS)系列,这一系列涵盖多种用途的卫星,包括通信、导航和军事监视。COSMOS 864 的具体任务细节未公开,但其发射表明苏联在冷战期间持续加强其空间监视和情报能力。该卫星最终在轨道上运行一段时间后失效,成为太空垃圾的一部分。

基本信息
目录编号:
9509
目录名称:
COSMOS 864
国际标识:
1976-108A
轨道中心:
EARTH
卫星名称:
COSMOS 864
卫星全名:
--
卫星状态:
在轨 (已飞行17944 天)
发射日期:
1976-10-29 UTC
国别 :
俄罗斯(独联体) (CIS)
星等 :
--
轨道信息
数据来源 国际轨道数据
星历时间: 2025-12-14T15:30:38+0800
1天前
查看轨道信息
半长轴: 7357.801km
偏心率: 0.0028757
轨道倾角: 82.940°
近地点辐角 302.589°
升交点赤经 286.687°
平近点角 179.044°
近地点: 958.507km
远地点: 1000.825km
周期: 104.684分钟
每日圈数: 13.755637
详细信息
使用方式:
暂无
2D轨道图
3D轨道图
轨道高度分析图
轨道倾角分析图
轨道综合分析图
查看轨道综合分析图